Hickam AFB, HI

8:27 AM HST on January 17, 2017 (GMT -1000)
Honolulu International

Weather History for PHNL - April, 2012

Change the Weather History Date:

Monday, April 2, 2012

  Actual Average Record
Temperature  
Mean Temperature 77 °F 76 °F  
Max Temperature 84 °F 82 °F 87 °F (1983)
Min Temperature 69 °F 69 °F 61 °F (2013)
Degree Days  
Heating Degree Days 0 0  
Month to date heating degree days 0 0  
Since 1 July heating degree days 0 0  
Cooling Degree Days 12 11  
Month to date cooling degree days 24 22  
Year to date cooling degree days 865 797  
Growing Degree Days 26 (Base 50)    
Moisture  
Dew Point 62 °F    
Average Humidity 66    
Maximum Humidity 84    
Minimum Humidity 47    
Precipitation  
Precipitation 0.00 in 0.04 in 1.96 in (1963)
Month to date precipitation 0.00 0.08  
Year to date precipitation 7.20 6.40  
Snow  
Snow 0.00 in - - ()
Month to date snowfall 0.0  
Since 1 July snowfall 0.0  
Snow Depth 0.00 in    
Sea Level Pressure  
Sea Level Pressure 30.06 in    
Wind  
Wind Speed 6 mph (NNE)    
Max Wind Speed 15 mph    
Max Gust Speed 23 mph    
Visibility 10 miles    
Events      
T = Trace of Precipitation, MM = Missing Value Source: NWS Daily Summary

Daily Weather History Graph

Daily Weather History Graph

Search for Another Location

Airport or City:

Trip Planner

Search our weather history database for the weather conditions in past years. The results will help you decide how hot, cold, wet, or windy it might be!

Date:

Astronomy

Apr. 02, 2012 Rise Set
Actual Time 6:23 AM HST 6:47 PM HST
Civil Twilight 6:00 AM HST 7:09 PM HST
Nautical Twilight 5:34 AM HST 7:35 PM HST
Astronomical Twilight 5:08 AM HST 8:01 PM HST
Moon 3:03 PM HST (4/2) 3:11 AM HST (4/2)
Length of Visible Light 13h 08m
Length of Day
12h 23m
Waxing Gibbous, 80% of the Moon is Illuminated
Apr 2
Waxing Gibbous
Apr 6
Full
Apr 13
Last Quarter
Apr 20
New
Apr 28
First Quarter

Hourly Weather History & Observations

Time (HST) Temp. Heat Index Dew Point Humidity Pressure Visibility Wind Dir Wind Speed Gust Speed Precip Events Conditions
12:53 AM 71.1 °F - 63.0 °F 75% 30.09 in 10.0 mi North 3.5 mph - N/A   Partly Cloudy
1:53 AM 70.0 °F - 64.0 °F 81% 30.07 in 10.0 mi NNW 4.6 mph - N/A   Partly Cloudy
2:00 AM 69.8 °F - 64.4 °F 83% 30.07 in 10.0 mi North 4.6 mph - N/A   Mostly Cloudy
2:40 AM 69.8 °F - 64.4 °F 83% 30.07 in 10.0 mi NNW 4.6 mph - N/A   Scattered Clouds
2:53 AM 70.0 °F - 64.0 °F 81% 30.06 in 10.0 mi NW 3.5 mph - N/A   Clear
3:53 AM 69.1 °F - 63.0 °F 81% 30.06 in 10.0 mi North 5.8 mph - N/A   Scattered Clouds
4:53 AM 71.1 °F - 63.0 °F 75% 30.07 in 10.0 mi North 4.6 mph - N/A   Mostly Cloudy
5:53 AM 71.1 °F - 63.0 °F 75% 30.08 in 10.0 mi North 4.6 mph - N/A   Scattered Clouds
6:53 AM 71.1 °F - 64.0 °F 78% 30.09 in 10.0 mi NNW 3.5 mph - N/A   Scattered Clouds
7:53 AM 75.0 °F - 64.0 °F 69% 30.10 in 10.0 mi Calm Calm - N/A   Scattered Clouds
8:53 AM 75.9 °F - 64.0 °F 67% 30.10 in 10.0 mi South 6.9 mph - N/A   Scattered Clouds
9:53 AM 81.0 °F 81.9 °F 62.1 °F 52% 30.10 in 10.0 mi ENE 8.1 mph - N/A   Scattered Clouds
10:53 AM 81.0 °F 81.3 °F 59.0 °F 47% 30.09 in 10.0 mi Variable 5.8 mph - N/A   Scattered Clouds
11:53 AM 82.0 °F 82.4 °F 60.1 °F 47% 30.06 in 10.0 mi NE 8.1 mph 18.4 mph N/A   Scattered Clouds
12:08 PM 82.4 °F 82.5 °F 59.0 °F 45% 30.06 in 10.0 mi NE 9.2 mph 16.1 mph N/A   Mostly Cloudy
12:10 PM 82.4 °F 82.5 °F 59.0 °F 45% 30.06 in 10.0 mi NNE 8.1 mph 16.1 mph N/A   Mostly Cloudy
12:53 PM 82.9 °F 83.3 °F 61.0 °F 47% 30.03 in 10.0 mi ENE 8.1 mph 17.3 mph N/A   Scattered Clouds
1:53 PM 82.0 °F 82.4 °F 60.1 °F 47% 30.01 in 10.0 mi Variable 6.9 mph - N/A   Scattered Clouds
2:53 PM 82.0 °F 82.4 °F 60.1 °F 47% 29.99 in 10.0 mi East 13.8 mph 17.3 mph N/A   Scattered Clouds
3:53 PM 82.0 °F 82.4 °F 60.1 °F 47% 29.99 in 10.0 mi ENE 10.4 mph - N/A   Scattered Clouds
4:53 PM 79.0 °F - 64.0 °F 60% 30.00 in 10.0 mi SE 11.5 mph - N/A   Scattered Clouds
5:53 PM 79.0 °F - 62.1 °F 56% 30.01 in 10.0 mi NNE 10.4 mph - N/A   Scattered Clouds
6:53 PM 75.9 °F - 61.0 °F 60% 30.04 in 10.0 mi NNE 10.4 mph - N/A   Scattered Clouds
7:53 PM 75.0 °F - 63.0 °F 66% 30.05 in 10.0 mi NE 9.2 mph - N/A   Scattered Clouds
8:53 PM 73.9 °F - 63.0 °F 68% 30.06 in 10.0 mi NNE 9.2 mph - N/A   Partly Cloudy
9:53 PM 73.9 °F - 64.0 °F 71% 30.08 in 10.0 mi Calm Calm - N/A   Scattered Clouds
10:53 PM 73.9 °F - 64.0 °F 71% 30.08 in 10.0 mi East 10.4 mph - N/A   Scattered Clouds
11:53 PM 73.0 °F - 63.0 °F 71% 30.07 in 10.0 mi ENE 10.4 mph - N/A   Scattered Clouds